Find Starlink 34975

NORAD ID: 65224 Int'l Des: 2025-176 Owner: SPXS Country: US Constellation: starlink operational
LEOCIRCULAR

Live Position

Loading 3D Globe...

About Starlink 34975

Description loading...

Upcoming Passes

Passes for default location (London). Set your location on the main map for personalized predictions.

Altitude History

Loading altitude history...

Two-Line Element Set

1 65224U 25176AC 26105.04812595 .00008937 00000-0 31344-3 0 9993
2 65224 53.1591 344.0857 0000829 98.9675 261.1419 15.30205147 38686
Epoch: Apr 15, 2026 • Age: 28 hours

Current Status

Altitude 480.0 km
Velocity 7.63 km/s
Sub-Earth Point -17.43°S, 102.27°W
Launch Date Aug 14, 2025
Age 0.6 years
Type internet

Technical Details

Classification Payload
Mass 575.00 kg
Dry Mass 530.00 kg
Total Mass 575.00 kg
Length 0.30 m
Diameter 4.10 m
Span 29.00 m
Shape Box + pan
Manufacturer SPXS
Bus Type Starlink V2MO
Phase Status In Orbit
Owner/State SPXS/US

Most Searched